Hourly Data Report for October 03, 2015

All times are specified in Local Standard Time (LST). Add 1 hour to adjust for Daylight Saving Time where and when it is observed.

TORONTO INTL A
ONTARIO

43°40'36.000" N
79°37'50.000" W
173.40 m
6158731
71624
YYZ

Download Data

Hourly Data (October 2015)
Hourly Data Report for October 3, 2015
Temp Definition
°C
Dew Point Temp Definition
°C
Rel Hum Definition
%
Wind Dir Definition
10's deg

Wind Spd Definition
km/h
Visibility Definition
km
Stn Press Definition
kPa
Hmdx Definition


Wind Chill Definition


Weather Definition


TIME
00:00 Legend Double Dagger 8.1 -2.2 48 6 25 24.1 100.98     LegendNANA
01:00 Legend Double Dagger 7.7 -2.1 50 6 23 24.1 100.96     Cloudy
02:00 Legend Double Dagger 7.4 -2.9 48 6 27 24.1 100.96     LegendNANA
03:00 Legend Double Dagger 6.9 -3.1 49 5 22 24.1 100.90     LegendNANA
04:00 Legend Double Dagger 6.5 -3.2 50 6 16 24.1 100.92     Cloudy
05:00 Legend Double Dagger 6.5 -2.9 51 6 27 24.1 100.89     LegendNANA
06:00 Legend Double Dagger 6.5 -2.6 52 6 27 24.1 100.93     LegendNANA
07:00 Legend Double Dagger 6.4 -2.0 55 7 23 24.1 100.92     Mostly Cloudy
08:00 Legend Double Dagger 7.3 -1.1 55 7 22 24.1 100.96     LegendNANA
09:00 Legend Double Dagger 8.1 -0.6 54 7 30 24.1 100.92     LegendNANA
10:00 Legend Double Dagger 9.5 -1.2 47 7 32 24.1 100.91     Mostly Cloudy
11:00 Legend Double Dagger 10.4 0.5 50 8 22 24.1 100.88     LegendNANA
12:00 Legend Double Dagger 10.9 0.4 48 9 37 24.1 100.83     LegendNANA
13:00 Legend Double Dagger 11.0 -0.1 46 7 30 24.1 100.77     Cloudy
14:00 Legend Double Dagger 10.8 0.8 50 9 29 24.1 100.74     Rain
15:00 Legend Double Dagger 9.9 2.5 60 8 25 24.1 100.75     Rain
16:00 Legend Double Dagger 9.2 3.4 67 7 18 19.3 100.75     Rain
17:00 Legend Double Dagger 8.7 3.8 71 6 13 19.3 100.74     Rain
18:00 Legend Double Dagger 9.1 3.1 66 6 19 24.1 100.76     LegendNANA
19:00 Legend Double Dagger 9.2 3.6 68 5 17 24.1 100.76     Cloudy
20:00 Legend Double Dagger 9.8 2.4 60 6 19 24.1 100.73     LegendNANA
21:00 Legend Double Dagger 10.8 3.6 61 7 21 24.1 100.73     LegendNANA
22:00 Legend Double Dagger 11.5 5.0 64 10 30 24.1 100.68     Cloudy
23:00 Legend Double Dagger 11.2 4.5 63 11 28 24.1 100.66     LegendNANA

Notes on Data Quality.

Legend

  • E = Estimated
  • M = Missing
  • NA = Not Available
  • ‡ = Partner data that is not subject to review by the National Climate Archives
Date modified: